Weather History for Orange, MA

Change the Weather History Date:

Friday, February 17, 2012

  Actual Average Record
Temperature  
Mean Temperature 36 °F -  
Max Temperature 45 °F 33 °F 52 °F (2011)
Min Temperature 27 °F 14 °F -6 °F (2004)
Degree Days  
Heating Degree Days 29    
Moisture  
Dew Point 30 °F    
Average Humidity 74    
Maximum Humidity 100    
Minimum Humidity 40    
Precipitation  
Precipitation 0.00 in - - ()
Sea Level Pressure  
Sea Level Pressure 29.94 in    
Wind  
Wind Speed 6 mph (WSW)    
Max Wind Speed 20 mph    
Max Gust Speed 23 mph    
Visibility 9 miles    
Events      
Averages and records for this station are not official NWS values.
T = Trace of Precipitation, MM = Missing Value Source: NWS Daily Summary

Daily Weather History Graph

Daily Weather History Graph

Search for Another Location

Airport:

Trip Planner

Search our weather history database for the weather conditions in past years. The results will help you decide how hot, cold, wet, or windy it might be!

Date:

Astronomy

Feb. 17, 2012 Rise Set
Actual Time 6:43 AM EST 5:23 PM EST
Civil Twilight 6:15 AM EST 5:51 PM EST
Nautical Twilight 5:42 AM EST 6:24 PM EST
Astronomical Twilight 5:09 AM EST 6:57 PM EST
Moon 3:36 AM EST (2/17) 1:09 PM EST (2/17)
Length of Visible Light 11h 36m
Length of Day
10h 39m
Waning Crescent, 19% of the Moon is Illuminated
Feb 17
Waning Crescent
Feb 21
New
Feb 29
First Quarter
Mar 8
Full
Mar 14
Last Quarter

Hourly Weather History & Observations

Time (EST) Temp. Windchill Dew Point Humidity Pressure Visibility Wind Dir Wind Speed Gust Speed Precip Events Conditions
12:13 AM 35.6 °F 31.7 °F 35.6 °F 100% 29.99 in 7.0 mi South 4.6 mph - N/A   Overcast
12:52 AM 36.0 °F 33.3 °F 35.1 °F 97% 29.99 in 8.0 mi South 3.5 mph - N/A   Overcast
1:21 AM 37.4 °F 33.8 °F 35.6 °F 93% 29.97 in 7.0 mi South 4.6 mph - N/A   Overcast
1:52 AM 37.9 °F 32.7 °F 37.0 °F 97% 29.97 in 6.0 mi SSW 6.9 mph - N/A   Overcast
2:52 AM 37.9 °F 32.7 °F 37.0 °F 97% 29.95 in 4.0 mi South 6.9 mph - N/A   Overcast
3:52 AM 39.0 °F 34.0 °F 37.0 °F 93% 29.95 in 7.0 mi South 6.9 mph - 0.00 in   Overcast
4:48 AM 39.2 °F 35.0 °F 37.4 °F 93% 29.93 in 10.0 mi South 5.8 mph - 0.00 in   Overcast
4:52 AM 39.0 °F 33.4 °F 37.9 °F 96% 29.94 in 10.0 mi SSW 8.1 mph - 0.00 in   Overcast
5:52 AM 39.0 °F 34.8 °F 37.9 °F 96% 29.94 in 10.0 mi SSW 5.8 mph - 0.00 in   Overcast
5:56 AM 39.2 °F 35.9 °F 37.4 °F 93% 29.92 in 10.0 mi SSW 4.6 mph - N/A   Overcast
6:50 AM 39.2 °F 35.0 °F 37.4 °F 93% 29.94 in 10.0 mi SSW 5.8 mph - N/A   Overcast
7:52 AM 39.9 °F 34.5 °F 37.0 °F 89% 29.97 in 10.0 mi SSW 8.1 mph - N/A   Overcast
8:52 AM 41.0 °F 37.1 °F 35.1 °F 79% 29.97 in 10.0 mi WSW 5.8 mph - N/A   Mostly Cloudy
9:52 AM 43.0 °F 36.8 °F 32.0 °F 65% 29.96 in 10.0 mi WNW 11.5 mph 17.3 mph N/A   Scattered Clouds
10:52 AM 44.1 °F 37.7 °F 30.0 °F 58% 29.95 in 10.0 mi WNW 12.7 mph 21.9 mph N/A   Mostly Cloudy
11:52 AM 44.1 °F 39.0 °F 25.0 °F 47% 29.92 in 10.0 mi West 9.2 mph - N/A   Partly Cloudy
12:52 PM 45.0 °F 40.1 °F 26.1 °F 48% 29.90 in 10.0 mi NNW 9.2 mph - N/A   Overcast
1:52 PM 45.0 °F 39.7 °F 26.1 °F 48% 29.89 in 10.0 mi NW 10.4 mph - N/A   Mostly Cloudy
2:52 PM 44.1 °F 35.9 °F 21.9 °F 42% 29.89 in 10.0 mi NW 19.6 mph - N/A   Scattered Clouds
3:52 PM 43.0 °F 36.0 °F 19.9 °F 40% 29.89 in 10.0 mi West 13.8 mph 23.0 mph N/A   Partly Cloudy
4:52 PM 39.9 °F 33.9 °F 18.0 °F 41% 29.91 in 10.0 mi WNW 9.2 mph 18.4 mph N/A   Mostly Cloudy
5:52 PM 37.0 °F 34.5 °F 19.0 °F 48% 29.93 in 10.0 mi West 3.5 mph - N/A   Clear
6:52 PM 33.1 °F 28.7 °F 19.0 °F 56% 29.94 in 10.0 mi West 4.6 mph - N/A   Clear
7:52 PM 28.9 °F - 21.0 °F 72% 29.94 in 10.0 mi Calm Calm - N/A   Clear
8:52 PM 27.0 °F - 19.9 °F 75% 29.94 in 10.0 mi Calm Calm - N/A   Clear
9:52 PM 28.0 °F 22.8 °F 21.0 °F 75% 29.94 in 10.0 mi WNW 4.6 mph - N/A   Scattered Clouds
10:52 PM 34.0 °F 28.0 °F 25.0 °F 70% 29.93 in 10.0 mi West 6.9 mph - N/A   Clear
11:52 PM 33.1 °F 27.7 °F 25.0 °F 72% 29.93 in 10.0 mi WSW 5.8 mph - N/A   Clear